Powrót do katalogu

COSMOS 970 DEB

AktywnyLEO
NORAD 13948·DEBRIS·🇷🇺 Russia

Wystrzelony Dec 21, 1977 z Baikonur Cosmodrome

Loading…

Następne Przeloty (najbliższe 24 godziny)

TLE

ŚwieżeSource: Space-Track

Epoka: Sep 14, 2026, 01:56 UTC

1 13948U 77121BD  26257.08110608  .00000953  00000-0  87707-3 0  9998
2 13948  65.7579 217.4456 0071264 303.5560 182.7154 13.86318850315670

Śledź COSMOS 970 DEB w czasie rzeczywistym z AllMySat

Download on the App Store